Theta_e
331 331 332 332 331 332 333 333 331 332 334 335 334 332 333 335 334 333 330 326 325 325 323 322 323 322 322 323 323 324 324 325 325 325 325 326 326 326 326 326 326 326 327 327 327 328 328 329 330 330 331 331 331 331 331 332 332 331 331 330 330 330 330 330 330 331 330 330 330 327 325 324 325 327 327 327 327 326 328 329 328 328 328 328 329
331 332 332 331 331 331 332 333 332 333 334 334 334 333 334 334 334 333 328 324 324 325 325 324 324 323 322 322 323 324 324 323 321 321 322 322 322 323 323 323 322 322 325 325 326 329 328 328 329 329 329 330 330 331 331 331 331 331 331 330 330 330 330 329 330 330 329 330 330 329 329 329 327 327 326 326 325 324 326 327 326 327 328 328 328
332 333 332 330 329 330 333 334 333 333 334 334 334 333 333 334 334 331 325 324 327 327 326 323 323 323 322 322 322 323 322 321 320 320 321 321 321 323 324 323 321 320 322 323 324 326 327 327 327 328 328 328 329 330 330 330 330 330 331 330 328 329 329 328 328 328 329 330 329 330 333 333 331 330 327 325 324 323 323 323 323 326 328 327 327
332 334 332 329 329 332 334 335 334 333 334 334 334 334 334 334 334 330 326 326 328 326 325 323 322 323 323 322 321 321 321 321 322 322 322 322 323 323 323 323 323 321 321 321 322 323 325 326 326 327 327 327 329 330 330 330 330 329 330 330 329 329 329 329 328 328 329 330 330 331 331 332 335 333 330 329 328 327 325 324 323 325 327 327 326
331 332 332 330 330 332 334 335 335 334 334 334 335 335 335 335 333 329 327 328 327 324 323 322 322 323 322 320 320 321 321 321 322 322 322 322 323 323 322 323 323 322 321 321 321 322 324 325 325 326 325 326 327 328 329 329 329 329 329 330 330 330 330 329 329 328 329 329 329 331 331 333 335 332 330 331 330 330 330 329 326 323 324 326 326
331 331 331 330 330 330 332 334 335 335 334 335 336 336 336 335 333 330 329 329 326 324 324 323 321 322 320 317 319 321 321 321 322 323 322 322 322 321 322 322 321 321 321 321 321 321 322 323 325 326 324 324 326 327 328 326 326 327 327 328 329 329 329 329 328 328 328 328 328 329 330 331 332 330 331 332 329 330 331 331 329 326 325 323 323
332 331 329 331 330 329 330 332 333 334 335 336 337 337 336 335 333 329 329 328 326 324 324 323 321 321 318 315 318 321 321 320 322 322 322 321 321 321 321 321 321 321 320 321 321 321 321 321 322 324 323 323 324 324 325 325 325 326 325 326 327 328 328 328 328 328 328 328 327 328 328 328 330 330 332 333 332 331 330 329 329 328 328 325 323
332 331 329 330 329 328 329 331 331 333 335 336 337 337 337 336 333 329 329 328 325 325 324 322 321 319 316 315 319 322 321 321 321 321 321 320 321 322 322 321 321 321 320 321 321 321 320 318 318 321 321 322 322 322 322 322 323 324 325 324 324 326 327 327 327 327 327 327 327 328 327 328 329 328 328 329 332 335 333 330 328 327 327 326 325
332 331 332 330 328 328 328 330 330 331 333 334 336 337 336 336 334 330 329 328 326 325 324 321 318 315 315 318 322 322 321 320 320 321 321 321 322 322 321 319 319 319 318 319 318 319 319 316 315 317 317 316 317 318 319 320 321 322 322 321 322 323 325 326 326 325 325 324 325 326 327 328 329 328 327 325 326 331 334 333 328 326 328 327 327
333 332 334 331 328 328 328 329 330 330 331 332 333 334 335 336 333 330 329 328 326 325 323 319 314 313 316 321 322 321 321 321 320 321 321 322 321 320 318 318 318 317 316 316 316 316 317 316 315 316 315 314 314 315 316 317 319 320 320 319 319 320 321 322 322 320 319 319 320 321 324 326 326 324 323 322 322 325 329 328 321 320 324 325 325
329 331 333 330 328 329 329 328 328 329 330 331 332 332 332 334 332 330 329 327 326 325 322 318 314 315 318 321 322 321 320 320 320 321 321 321 320 319 319 317 316 316 315 315 315 315 314 314 315 315 315 315 316 316 317 317 317 318 319 318 318 318 319 319 317 316 316 317 317 318 319 320 319 318 318 317 318 319 322 322 316 315 317 316 319
326 330 333 332 332 330 328 328 327 327 328 329 331 330 330 331 330 329 328 328 327 324 321 317 316 318 320 321 322 320 320 320 320 321 321 320 320 320 320 318 316 315 316 315 314 315 315 314 314 315 316 316 316 316 316 316 316 317 317 317 317 316 317 319 316 315 316 315 315 316 315 314 314 315 316 315 316 316 317 317 315 315 316 314 314
328 330 334 337 338 332 328 328 327 326 326 327 330 330 328 329 328 328 328 328 327 324 321 318 316 319 321 322 321 319 320 320 319 321 321 320 320 320 319 318 317 317 317 315 313 315 316 315 314 315 315 315 315 314 313 313 314 314 313 314 314 311 313 317 317 316 315 314 314 313 313 313 313 314 314 314 315 314 314 315 314 315 316 315 315
328 330 334 338 337 331 328 329 327 326 326 326 328 329 328 327 327 327 328 329 327 323 321 319 316 318 321 321 320 319 320 319 319 321 321 320 321 320 319 318 317 317 317 315 313 315 316 316 314 313 313 314 314 315 315 314 313 312 312 312 312 309 308 311 313 314 314 314 313 313 312 313 313 313 314 313 314 314 313 314 315 315 315 314 314
329 331 334 336 332 328 328 330 328 327 326 326 327 328 327 327 327 327 327 328 327 323 322 320 317 318 322 321 319 319 320 319 319 321 321 320 321 320 320 320 318 317 317 315 315 317 316 315 313 311 311 313 313 315 315 315 314 311 310 312 313 311 308 307 309 312 314 314 313 312 311 312 312 313 313 312 312 313 313 313 314 316 318 317 314
331 332 334 333 328 326 328 330 330 330 328 327 327 328 327 326 326 327 326 326 326 324 323 322 318 319 322 320 318 319 320 320 320 321 321 321 321 320 320 321 319 318 318 316 316 317 315 312 310 309 309 309 310 313 314 315 313 310 311 313 315 315 312 309 309 310 313 314 313 312 310 310 313 313 310 309 310 312 313 312 313 314 317 318 318
331 332 333 332 327 325 326 328 330 331 329 329 328 328 327 325 325 325 325 325 325 324 325 324 321 319 321 321 319 319 321 320 320 320 321 321 320 320 320 321 320 319 319 317 315 317 316 314 311 309 308 308 309 313 314 314 313 312 313 315 316 315 313 311 310 308 310 313 313 313 310 309 312 312 311 310 310 311 312 311 312 312 314 317 318
331 329 329 328 325 324 325 325 327 329 330 330 329 329 327 326 325 324 322 323 324 324 325 325 323 320 321 322 319 319 320 321 320 319 320 321 320 320 320 321 321 320 320 318 316 316 317 315 313 312 310 308 308 312 314 313 314 314 314 314 314 312 312 312 311 307 307 310 312 312 311 309 310 312 312 312 311 310 310 310 311 311 312 314 314
329 327 327 327 324 323 324 324 325 326 327 328 329 328 327 327 326 323 321 322 324 325 325 325 324 320 320 322 321 320 320 320 321 320 318 321 321 319 320 320 321 320 320 319 318 317 318 317 315 314 313 311 309 312 315 313 314 315 314 314 312 311 312 311 310 307 306 309 310 311 310 308 309 312 312 311 310 310 311 309 310 310 310 312 312
327 326 328 327 324 323 324 324 324 324 325 326 327 326 326 327 326 324 323 323 324 325 324 324 324 321 321 323 321 321 320 318 320 321 319 320 321 320 319 319 321 321 320 320 319 318 318 317 317 316 316 314 312 313 315 313 313 314 314 314 312 313 314 311 310 310 309 310 311 311 309 307 307 309 309 309 309 310 311 310 311 311 311 311 311
329 327 328 326 323 324 324 323 323 323 323 324 324 325 325 326 327 326 325 325 324 324 323 322 324 324 323 324 323 323 323 321 320 322 319 319 320 321 320 319 320 321 320 321 321 320 319 318 317 317 317 317 315 314 315 313 313 314 314 314 312 313 315 312 311 312 311 310 311 311 311 309 307 305 306 309 309 309 309 309 310 310 309 310 310
329 328 328 325 322 323 324 323 323 323 323 322 323 324 324 324 325 325 325 325 324 324 323 322 323 325 325 325 325 324 325 324 323 323 321 320 320 320 320 320 320 321 321 321 321 321 320 319 318 317 318 318 317 316 316 314 313 314 314 314 313 313 314 313 312 312 310 309 310 310 310 311 308 305 305 308 308 307 308 308 308 308 308 308 308
327 328 327 323 321 322 322 322 322 322 321 321 322 323 323 323 324 324 324 324 323 323 323 323 324 325 324 325 324 323 323 323 323 323 323 323 322 321 321 321 321 321 321 321 321 321 321 320 319 319 319 318 319 318 316 315 314 314 314 314 313 313 312 313 313 311 310 310 309 308 309 310 309 306 305 307 308 308 308 308 308 307 307 307 307
324 325 323 320 319 320 319 320 320 319 319 320 320 321 322 323 323 324 324 323 323 323 323 323 324 323 323 323 323 322 322 323 322 323 323 323 323 322 323 322 321 321 320 321 322 322 322 321 320 320 320 319 319 319 318 317 316 314 314 315 315 314 312 312 313 312 311 311 310 308 309 310 310 308 307 307 308 309 309 308 307 307 307 307 307
321 322 322 320 319 318 317 317 318 317 317 317 317 318 319 321 322 322 323 323 323 323 323 323 323 322 322 322 322 322 321 321 321 322 322 322 322 322 323 323 322 322 320 320 321 322 322 322 321 321 320 320 319 319 318 318 317 316 315 315 315 315 313 311 312 312 310 310 311 310 309 310 310 309 308 308 308 309 308 307 306 306 306 306 306
321 321 321 320 319 315 315 316 316 315 315 315 315 316 317 317 318 319 321 322 322 323 323 322 322 322 322 321 321 321 320 320 321 322 321 321 320 320 321 320 320 320 319 319 320 320 320 320 321 320 321 320 319 319 319 318 317 317 316 315 315 315 314 312 312 312 311 310 310 310 309 309 309 308 308 308 308 307 307 306 306 306 306 305 305
322 323 321 321 319 315 313 314 315 314 314 314 314 314 314 315 315 316 318 319 320 321 322 321 322 322 322 322 322 322 321 321 322 322 322 321 320 320 320 319 319 320 319 318 317 318 317 318 318 319 320 320 320 319 319 318 318 317 316 316 316 315 315 313 312 312 312 311 310 309 309 309 308 308 307 307 306 306 306 304 303 302 302 301 301
322 322 321 321 322 318 313 311 313 313 313 313 313 313 313 312 312 313 314 315 316 318 319 321 322 322 322 322 322 322 323 323 324 324 323 322 321 321 321 320 321 321 319 318 317 317 317 316 317 318 319 320 320 320 319 319 318 317 317 316 316 316 315 314 313 312 312 311 310 309 308 308 307 307 306 305 306 305 302 298 296 296 296 296 297
320 322 321 320 322 321 314 311 312 312 312 313 312 312 312 311 311 311 312 312 313 314 315 315 315 315 318 321 321 321 321 322 322 322 322 323 322 322 322 322 322 322 321 321 319 319 318 318 318 319 319 319 319 319 319 319 318 318 318 317 316 315 315 314 312 312 311 310 309 309 307 307 306 306 305 305 305 303 299 295 293 293 293 294 295
318 319 320 319 320 317 312 311 311 311 312 312 312 312 311 311 311 311 311 311 311 311 311 311 311 310 312 314 314 314 315 315 315 316 317 318 318 318 318 319 319 320 320 321 320 319 319 319 320 320 320 320 320 319 319 319 318 318 318 318 317 316 315 313 312 312 311 310 309 308 307 306 305 305 305 304 304 302 298 296 295 294 295 295 296
318 317 316 318 318 314 311 310 311 310 310 311 311 311 311 311 311 310 310 310 309 310 310 310 311 310 310 310 310 310 311 311 312 313 313 314 314 315 316 316 316 317 318 319 320 320 320 320 320 320 320 320 320 320 320 319 318 318 318 318 317 316 314 313 312 311 311 309 308 307 306 306 305 304 304 304 303 301 299 297 297 298 298 298 298
317 316 315 316 317 315 311 310 310 310 309 308 309 309 309 309 309 308 308 308 308 308 308 308 308 307 307 308 307 308 309 309 310 311 312 312 313 314 315 317 318 319 319 320 320 321 321 321 321 321 321 321 320 320 320 320 319 319 318 318 318 316 314 313 312 311 311 310 308 307 306 305 305 304 304 303 302 301 299 299 300 300 300 299 298
316 317 316 315 314 311 309 309 309 309 309 308 308 308 309 308 307 307 307 307 307 308 307 308 307 307 307 307 307 307 307 307 308 308 309 309 310 310 310 312 314 316 318 320 320 321 321 321 321 321 321 321 321 321 321 320 319 319 318 319 318 316 314 313 312 312 311 309 308 307 305 305 304 304 304 303 302 301 300 300 301 301 300 299 298
315 317 317 313 310 309 309 309 308 308 308 308 307 308 309 308 307 307 307 307 307 307 308 308 308 308 307 307 307 307 307 308 308 308 308 308 308 308 308 308 309 310 313 316 317 318 320 321 321 321 321 321 321 320 320 320 319 319 318 318 317 315 314 313 312 311 309 308 307 306 305 305 304 303 303 302 302 301 301 301 301 301 300 299 298
314 314 314 311 308 309 309 308 308 308 308 307 306 307 308 308 307 307 308 308 307 307 307 308 308 308 308 307 307 307 308 308 308 308 307 307 307 307 308 308 308 309 310 312 314 316 317 318 318 319 320 320 320 320 320 319 319 318 317 316 315 313 312 310 309 308 307 306 305 305 304 303 303 302 302 302 301 301 301 301 301 300 299 298 298
314 311 311 309 308 309 308 308 308 308 308 307 306 306 307 307 307 307 308 308 307 307 307 307 307 307 307 307 307 307 308 308 308 308 308 307 307 307 307 307 308 308 308 310 312 314 315 316 317 318 319 320 320 319 319 318 316 315 314 314 312 310 309 308 307 306 306 305 304 303 303 302 302 301 301 301 301 301 301 301 300 299 298 298 297
311 309 309 309 309 309 308 308 308 308 307 306 305 305 305 305 306 306 307 307 307 307 307 307 307 307 307 307 307 307 308 308 308 308 308 307 307 307 307 307 307 307 308 308 310 312 313 314 316 318 319 319 319 319 318 315 313 312 312 311 309 308 307 306 305 304 304 304 303 303 302 302 301 301 301 301 301 301 301 300 299 298 298 297 297
308 307 307 307 307 307 307 307 307 306 305 305 304 304 305 305 306 306 306 307 306 306 307 307 306 307 307 307 306 307 308 308 308 308 308 307 307 307 306 306 306 307 307 307 308 311 313 313 314 315 316 317 318 318 316 313 310 310 310 308 306 306 305 304 303 303 302 302 302 302 302 302 302 301 302 302 302 301 300 299 298 297 297 297 297
305 305 305 304 304 304 305 305 305 305 305 304 304 304 305 305 306 306 305 306 306 306 307 307 306 307 307 307 306 306 307 307 308 308 308 307 307 307 307 307 307 307 308 307 308 310 313 313 313 314 314 315 316 315 313 310 308 308 308 306 305 304 303 302 302 302 302 301 301 301 301 301 301 301 301 301 300 299 298 297 296 296 296 295 295
304 304 304 304 303 304 304 304 304 304 305 304 304 304 305 305 305 305 305 305 305 306 306 306 306 306 306 306 306 306 306 306 306 307 307 307 308 308 308 308 308 308 308 309 309 311 312 312 313 314 314 314 314 313 309 307 307 306 306 305 304 303 302 301 300 300 300 299 299 298 298 298 299 299 299 298 297 297 296 296 295 294 294 293 293
303 303 304 304 304 304 303 303 304 304 304 303 304 304 304 304 304 304 305 305 305 305 305 305 305 306 306 306 306 306 306 306 306 306 307 308 308 309 309 308 308 308 309 310 310 310 311 311 312 312 312 312 313 311 307 304 304 304 304 304 303 301 301 300 299 299 299 297 296 296 296 296 296 296 296 296 295 295 295 294 294 293 293 292 292
302 302 302 303 303 303 304 303 303 303 303 303 304 303 303 304 304 304 304 305 305 305 305 305 305 306 306 306 306 306 306 305 305 306 307 308 308 308 309 308 308 308 310 310 310 309 309 309 309 309 310 309 309 308 306 303 303 303 302 301 301 299 299 299 299 298 297 295 295 295 295 295 296 296 296 295 295 294 294 293 293 293 292 292 292
301 301 301 301 302 302 303 303 303 303 303 303 303 303 303 303 303 303 303 303 304 304 305 305 305 305 305 305 305 306 306 305 305 305 306 307 307 308 308 308 308 309 310 309 308 307 306 306 305 305 306 306 304 303 302 302 301 301 300 299 299 298 297 297 296 294 293 293 294 295 295 295 296 296 295 294 294 293 293 293 293 292 292 292 292
300 300 300 300 300 300 301 301 302 302 302 302 302 302 302 302 302 302 303 303 303 304 304 305 305 305 305 305 305 305 305 305 304 304 305 306 307 308 308 308 309 309 309 308 307 306 304 303 303 303 302 301 300 299 299 299 299 299 299 298 297 296 294 294 293 293 293 293 295 295 296 296 296 295 294 293 293 293 293 293 292 292 292 292 292
299 299 299 299 299 299 300 300 301 301 301 301 301 302 302 302 302 302 302 303 303 303 303 304 304 304 304 304 304 304 304 304 304 304 305 306 307 308 309 309 309 310 309 307 305 305 304 303 302 301 300 298 297 297 297 297 297 298 297 296 295 294 294 294 294 295 295 295 295 296 296 295 295 294 294 293 293 293 293 293 293 293 292 292 292
299 299 299 299 300 299 299 300 300 301 301 301 301 302 302 302 302 302 302 302 302 303 303 303 303 304 303 304 304 304 304 305 304 304 305 306 307 308 309 310 310 310 309 307 305 304 303 302 300 300 299 296 295 295 296 296 296 296 295 295 295 295 295 295 295 295 295 296 296 295 295 294 294 294 294 294 293 293 293 293 292 292 292 291 291
299 299 299 300 299 299 299 299 300 300 300 300 300 301 301 301 301 302 302 302 302 302 302 303 303 304 304 304 305 304 304 305 304 305 306 307 308 308 308 309 309 309 308 307 305 304 303 301 299 298 297 295 293 294 295 295 295 295 295 295 295 295 295 295 295 295 295 295 294 294 294 293 293 293 293 293 293 292 292 292 291 291 291 291 290
299 299 299 299 300 299 300 300 300 300 300 300 300 300 301 301 301 301 301 302 302 302 302 302 302 303 303 304 304 304 304 304 305 306 307 308 308 308 308 308 309 309 308 307 305 305 303 301 299 298 295 294 293 293 295 295 295 295 295 295 295 295 295 295 294 294 293 293 293 293 293 293 293 292 292 292 292 291 291 291 291 290 290 290 290
299 299 299 299 300 300 300 300 300 300 300 300 300 301 301 301 301 301 301 302 302 302 302 302 302 302 303 303 303 303 303 304 305 306 307 307 308 308 308 308 308 308 308 307 307 306 304 301 299 298 296 295 294 294 294 295 295 295 295 295 295 295 294 292 292 292 292 293 293 293 293 292 292 292 292 291 291 291 291 291 290 290 290 290 290
299 299 299 299 299 300 300 300 300 300 300 300 300 301 301 301 301 301 301 301 302 302 302 302 302 302 303 303 303 302 303 304 305 305 305 305 306 307 307 307 307 307 307 307 307 306 304 301 299 298 297 296 296 295 295 295 295 294 294 294 293 292 291 291 292 292 293 293 292 292 292 292 292 291 291 291 291 291 291 290 290 290 290 290 290
298 299 299 299 299 299 299 299 299 299 299 299 300 300 300 301 301 301 301 301 302 302 302 302 302 302 302 303 303 303 303 304 305 305 304 304 304 305 305 306 306 306 306 306 306 304 302 301 300 299 297 296 296 295 294 294 292 291 291 291 292 291 291 292 292 292 293 292 292 292 292 291 291 291 291 291 291 290 290 290 290 290 290 290 289
Wind_Speed
13 18 22 23 25 22 21 27 29 27 26 24 23 23 22 22 21 21 22 22 21 21 20 18 18 18 17 18 18 17 18 18 17 15 15 14 14 13 12 11 9 8 7 6 4 4 4 2 2 4 6 7 7 7 7 8 9 10 9 9 9 9 10 9 8 6 5 5 3 2 2 3 4 7 7 6 4 3 3 5 7 6 3 1 4
13 15 18 22 24 21 22 28 29 29 28 26 25 24 22 21 21 22 22 22 22 21 20 19 18 18 17 18 19 19 17 15 13 12 12 11 12 13 11 10 9 7 7 5 4 4 4 3 2 2 2 4 5 4 6 8 8 8 8 9 11 9 8 8 8 7 5 6 5 2 1 3 4 6 9 10 10 8 7 7 8 8 6 4 2
12 12 15 20 23 21 23 27 29 29 28 27 26 24 23 21 20 21 21 22 20 17 18 19 17 17 18 19 22 20 17 15 15 15 14 13 13 12 12 12 10 8 9 8 7 6 5 5 4 4 3 1 3 4 4 6 7 8 8 10 11 8 7 7 7 7 6 6 5 2 1 1 2 4 5 8 9 12 13 10 9 8 7 7 6
14 13 12 16 20 20 22 26 28 29 28 27 26 25 23 22 21 21 21 20 17 17 19 19 17 19 21 22 23 22 20 19 17 16 15 15 15 13 13 13 12 11 12 10 9 8 6 5 5 5 5 3 1 3 5 5 5 7 8 8 7 7 7 7 7 7 9 7 3 1 1 2 1 2 3 3 4 7 10 10 9 8 6 6 6
14 14 11 12 16 18 22 26 27 29 27 26 27 26 24 23 22 22 21 18 17 19 21 20 21 23 25 24 24 23 22 20 18 17 16 16 15 14 13 12 12 13 14 13 11 11 10 7 6 7 8 7 5 5 5 4 4 4 6 7 7 8 7 6 6 7 9 8 3 3 2 1 1 2 1 2 3 5 6 7 7 6 4 4 4
13 14 12 11 14 18 21 24 26 27 27 26 26 26 24 24 23 22 21 19 19 20 20 21 22 24 24 24 24 23 21 19 18 20 18 16 15 14 13 12 11 12 12 12 12 13 12 9 8 9 10 11 9 8 8 8 9 8 6 5 6 8 8 6 6 5 7 9 6 5 3 1 2 2 1 1 2 4 5 6 5 5 5 4 4
12 14 13 12 15 17 19 22 25 26 26 25 25 26 25 24 23 23 22 20 21 22 21 21 21 21 20 21 23 23 21 19 19 20 18 16 16 16 15 14 13 13 12 11 11 12 12 11 9 11 13 15 13 13 12 10 10 10 11 10 7 6 7 7 7 6 5 6 7 6 4 2 2 2 2 1 0 2 4 5 4 5 6 7 7
11 11 12 12 14 18 20 23 26 27 27 25 24 26 25 25 24 23 22 21 21 22 21 21 21 20 20 21 22 22 22 21 20 19 17 16 18 17 15 15 13 13 13 11 10 10 11 15 14 14 14 13 13 14 14 13 12 11 11 12 11 8 7 7 8 8 7 6 5 6 5 4 3 2 2 2 2 1 2 3 4 4 6 8 9
9 9 10 10 14 19 23 25 26 28 28 26 26 26 24 25 25 22 22 22 21 23 22 21 22 21 22 23 22 23 22 22 20 19 17 17 19 17 15 15 14 13 13 11 10 9 9 14 17 16 14 12 11 12 12 12 13 13 12 12 13 12 9 9 10 9 9 8 6 5 6 6 4 1 1 1 2 2 2 3 3 4 6 8 9
10 11 11 13 19 23 23 24 25 26 27 27 27 25 23 25 27 23 22 24 23 22 23 22 23 24 24 24 25 25 24 21 21 20 19 19 18 16 15 15 14 13 12 12 11 10 9 11 15 16 14 12 12 13 13 12 12 12 12 11 12 13 12 11 11 11 12 12 10 8 7 7 4 2 3 2 1 2 2 2 4 5 5 5 4
7 8 8 12 19 22 24 24 23 23 25 26 26 25 22 23 27 24 22 26 26 24 25 25 25 25 24 25 27 26 25 24 23 22 20 19 18 16 16 15 14 12 12 11 11 11 11 11 13 15 14 12 12 14 13 12 12 12 12 11 10 11 11 12 12 11 12 13 13 13 13 11 8 6 6 8 5 2 1 2 5 7 5 7 7
7 6 4 6 10 14 19 21 20 21 22 24 24 25 23 21 26 27 24 27 29 27 27 27 27 26 24 26 27 25 25 25 24 23 21 20 19 18 17 15 14 13 12 11 11 12 12 12 13 13 12 12 12 12 11 10 11 11 11 11 9 9 9 11 12 12 11 13 14 13 13 11 10 9 8 8 7 6 5 3 6 8 4 7 10
8 7 6 5 5 6 14 16 17 20 22 24 24 24 23 22 25 27 26 29 31 30 29 29 29 27 24 26 26 24 26 24 23 23 21 20 20 19 17 15 14 13 11 11 12 13 12 10 11 11 11 12 12 10 9 9 9 10 11 11 10 9 9 10 11 11 11 13 13 12 12 11 10 9 7 7 7 8 10 7 7 8 5 6 8
7 6 6 6 5 3 10 16 17 19 22 24 24 23 23 24 24 22 21 26 31 32 30 29 30 26 23 26 26 25 26 23 22 22 20 19 19 17 15 14 13 13 11 11 12 12 11 8 8 10 10 12 12 10 9 9 8 9 10 10 10 10 9 9 10 10 11 12 11 10 10 9 8 7 6 7 6 8 11 9 8 8 6 7 8
7 6 6 5 6 8 4 12 19 21 22 24 23 23 23 24 26 23 17 18 26 31 30 28 30 26 21 24 26 25 24 22 20 21 19 18 18 16 15 13 12 11 10 10 11 11 9 8 7 8 9 10 10 10 10 8 6 7 9 10 10 10 10 10 10 10 12 12 10 9 8 8 7 5 4 4 4 5 7 9 9 6 4 6 6
7 6 5 5 7 12 12 6 13 20 20 20 22 21 21 22 23 23 19 17 23 28 24 23 27 24 18 22 26 23 22 21 19 19 18 17 17 15 15 13 11 11 9 9 10 9 7 7 7 7 7 8 10 10 9 7 5 6 9 10 10 8 8 9 10 10 11 12 10 8 7 8 7 5 6 6 6 5 6 7 9 7 4 3 4
6 5 4 4 8 11 14 15 12 17 21 20 21 21 20 20 21 24 24 17 14 16 14 13 19 18 13 18 23 22 21 20 20 18 16 16 16 14 14 14 12 11 10 9 10 9 7 6 6 6 7 7 9 9 7 6 5 6 8 8 7 6 6 7 7 8 10 10 10 8 7 8 7 7 8 10 9 8 7 6 7 7 6 3 1
6 6 6 6 9 12 13 16 14 12 17 20 22 22 21 20 20 24 24 14 11 19 18 13 14 14 10 13 19 20 19 18 19 18 16 15 16 14 13 14 13 12 11 10 10 9 8 6 5 6 6 6 8 8 6 7 6 5 7 6 6 7 6 5 5 5 8 9 9 7 5 7 8 7 7 8 8 7 7 5 4 4 5 5 3
6 6 7 6 8 12 15 16 16 13 10 10 14 16 18 21 25 30 28 20 19 25 24 18 17 17 15 15 16 17 17 16 16 17 17 16 16 15 13 12 13 12 11 10 9 9 8 7 6 6 5 5 7 8 7 7 8 6 7 7 5 6 5 5 4 3 6 8 8 6 5 6 7 6 6 6 4 4 5 6 4 4 4 3 3
5 6 5 5 8 12 16 18 19 17 15 11 8 6 6 12 22 31 30 24 23 23 23 22 20 20 19 18 16 15 16 16 14 16 19 17 15 15 14 12 11 11 11 9 8 8 8 7 7 7 7 6 6 8 7 7 8 7 7 7 6 7 6 4 4 3 4 5 4 3 2 3 5 5 6 5 3 3 4 5 4 3 3 2 4
4 5 5 5 8 12 15 18 19 20 19 16 15 14 11 8 16 26 27 26 25 21 23 25 20 19 20 18 16 15 14 14 13 14 19 18 14 14 13 11 11 11 10 10 8 7 8 8 8 8 8 8 7 8 9 8 8 8 7 7 6 8 8 6 5 6 5 3 3 1 1 0 2 3 4 4 3 4 4 5 4 4 4 4 5
5 5 5 5 7 11 15 17 18 19 19 18 18 20 20 18 16 20 23 26 25 20 19 21 17 14 17 16 15 13 11 11 11 12 16 17 14 13 10 9 11 10 9 9 9 9 9 9 9 10 10 10 9 9 10 10 9 9 9 9 8 9 9 8 8 8 7 6 5 4 3 2 2 2 2 3 3 3 3 5 5 5 5 5 5
6 5 4 5 8 12 14 15 16 17 17 18 18 20 22 23 21 19 18 18 21 20 17 17 14 13 15 15 13 12 10 9 9 10 12 13 13 12 11 9 10 9 7 6 8 9 10 10 11 12 12 13 13 12 12 12 11 11 11 11 11 11 10 10 11 9 8 8 7 6 5 4 4 2 1 2 3 2 1 1 1 2 3 4 4
6 5 5 7 10 11 12 13 15 16 16 16 17 17 19 20 21 21 19 17 17 17 15 15 14 13 14 14 12 12 12 10 8 7 8 10 11 11 12 12 10 9 7 5 6 10 11 12 13 15 15 15 16 15 15 14 13 13 14 13 14 13 12 11 12 11 9 9 9 7 5 5 5 2 1 0 0 1 2 1 1 2 2 4 5
7 6 5 7 7 8 9 11 13 14 15 16 16 16 16 18 19 19 17 16 15 15 15 14 15 14 14 14 13 14 15 14 13 13 13 13 12 11 12 12 11 12 11 8 7 9 11 13 15 16 16 17 18 18 18 18 17 16 16 16 16 16 14 13 13 12 10 10 9 7 5 6 6 4 3 3 3 3 4 3 3 3 3 5 6
6 5 5 5 6 7 9 11 13 14 15 17 17 16 17 17 17 17 17 15 14 14 14 12 12 12 12 11 11 12 13 15 14 14 14 15 14 13 13 12 12 14 16 15 14 13 13 15 16 14 13 15 18 19 20 20 20 19 18 18 19 19 16 14 15 13 11 10 10 7 7 7 6 5 5 5 5 5 5 4 3 4 4 5 6
6 6 5 5 5 6 9 12 14 14 15 16 15 15 15 14 14 15 16 16 15 14 12 11 9 9 8 8 9 9 10 12 12 10 12 14 14 14 14 13 15 18 20 21 20 19 19 19 19 17 15 13 15 19 21 21 20 20 20 20 21 21 19 17 17 15 13 13 11 9 8 9 8 8 8 8 8 7 5 5 5 6 6 7 7
5 6 7 6 6 6 7 10 13 14 14 15 14 13 12 12 11 12 12 13 12 13 12 12 10 10 10 9 8 8 9 9 7 6 7 9 11 12 11 12 15 19 21 21 21 21 21 22 23 23 20 18 16 17 20 21 19 18 19 22 24 23 21 20 19 18 17 16 14 12 11 11 11 10 10 10 9 7 7 9 9 9 8 8 7
7 6 6 7 6 6 8 11 13 15 15 15 15 14 12 10 8 9 10 10 9 10 11 11 10 10 11 10 9 9 9 8 7 6 6 6 7 8 10 12 15 17 19 20 20 20 21 23 25 24 22 21 21 20 20 21 21 19 19 22 25 26 24 22 22 20 18 17 14 13 13 12 12 12 11 11 10 9 10 11 10 9 9 8 8
4 8 8 7 6 6 9 11 12 13 14 13 14 15 13 11 9 9 9 8 8 9 9 10 10 9 10 10 9 8 8 7 7 7 7 8 8 9 10 12 13 14 14 16 18 19 19 21 24 25 23 22 22 23 23 23 23 23 23 22 23 27 27 24 23 21 19 17 16 15 14 13 13 13 12 11 11 11 11 10 10 9 8 6 7
5 4 8 8 7 7 8 11 12 10 9 9 10 13 13 11 11 10 9 8 8 7 7 8 8 7 7 6 5 5 6 5 3 4 5 7 9 10 11 11 12 12 13 14 17 18 19 19 21 23 22 21 21 22 23 24 24 25 26 24 22 26 27 25 24 24 21 19 18 16 15 13 13 13 13 12 12 12 11 9 8 7 6 6 7
9 6 8 9 8 8 9 11 10 7 7 8 7 8 13 11 8 7 8 7 6 6 6 6 6 6 5 4 3 4 4 3 2 3 3 4 5 6 8 9 11 12 13 14 16 17 17 17 17 18 18 18 19 19 20 23 23 24 25 24 22 25 27 26 26 25 23 21 18 17 15 14 14 14 13 13 12 13 11 9 8 7 7 7 7
5 5 7 7 7 11 14 15 13 9 9 11 13 9 9 8 5 4 4 3 5 6 5 5 5 4 4 3 2 3 2 1 1 2 2 1 0 1 3 4 6 7 9 10 11 13 14 14 13 13 13 14 15 16 17 19 20 21 22 22 23 26 29 28 25 24 21 19 17 16 15 15 14 13 12 12 12 12 11 10 9 9 8 7 7
5 5 6 7 8 12 17 17 14 12 9 9 9 6 5 4 2 1 1 2 3 5 6 5 4 3 2 3 3 2 2 2 3 3 2 1 2 3 5 6 6 6 6 6 7 9 11 12 11 10 10 11 12 14 14 14 15 17 19 22 24 26 27 24 22 20 18 16 15 15 16 14 12 11 10 10 10 11 11 12 12 11 10 9 10
7 6 7 9 10 12 16 16 13 11 8 8 9 5 1 0 2 4 5 4 3 3 5 6 5 4 2 2 3 3 2 2 1 1 1 1 2 3 5 6 7 7 7 7 8 9 9 11 13 12 10 9 11 13 13 13 14 14 16 20 23 23 22 20 17 16 15 14 13 14 14 11 9 8 9 9 10 11 12 14 13 12 12 12 14
7 8 8 9 10 10 11 10 8 5 3 6 9 7 4 5 5 3 3 4 6 7 6 4 5 5 4 4 5 4 4 3 2 2 2 2 3 4 4 6 7 8 8 9 10 10 10 9 11 12 11 10 11 13 13 12 12 11 15 21 22 21 19 17 14 13 14 14 13 12 11 9 9 10 10 11 12 13 15 16 14 13 14 14 15
8 6 4 4 5 5 6 6 5 4 2 4 6 8 8 9 8 6 7 7 8 9 7 6 6 7 7 7 6 5 4 4 4 4 4 3 4 4 5 7 8 9 10 11 11 11 12 10 9 11 11 10 11 13 12 10 10 13 18 20 20 18 16 15 14 13 12 11 10 9 8 9 10 11 12 13 14 15 16 16 15 14 14 14 14
7 6 3 6 4 3 6 7 5 3 4 6 6 7 9 8 7 8 10 11 11 10 9 8 7 7 7 6 5 4 5 6 6 5 5 5 6 6 7 8 9 11 12 13 13 12 12 12 11 11 10 9 10 12 12 12 13 16 17 16 16 16 15 14 12 9 6 6 7 8 9 11 12 13 13 13 14 15 15 14 13 14 14 14 15
10 7 7 10 12 8 3 3 3 1 4 5 6 8 9 8 9 10 12 13 13 13 11 8 6 5 5 4 4 4 5 5 6 7 8 9 9 9 8 8 9 11 13 14 15 14 12 12 12 13 11 9 10 12 14 15 16 16 15 14 14 13 12 9 7 6 6 6 6 6 7 10 12 12 12 13 13 12 12 12 12 13 15 17 18
16 13 11 12 13 11 8 5 4 5 6 7 9 11 11 10 10 11 12 14 14 15 14 12 10 9 8 8 8 8 8 9 11 13 13 13 12 10 9 9 10 11 13 15 15 13 11 11 11 12 11 10 11 14 16 17 17 16 15 15 13 12 11 9 9 8 7 4 2 2 2 4 6 8 9 9 9 9 10 11 13 15 17 19 18
19 18 18 17 16 12 9 9 9 10 10 10 12 13 13 13 12 13 14 15 16 17 17 16 15 13 11 11 10 11 11 12 13 14 15 14 13 11 10 9 9 11 14 14 10 8 9 10 10 10 11 12 13 15 18 19 17 16 15 14 14 13 13 12 10 8 6 3 2 4 4 4 5 6 6 7 8 10 13 14 16 16 16 15 15
18 20 20 19 18 17 17 15 14 14 14 14 14 15 15 16 17 17 17 17 17 17 17 17 16 15 14 13 13 13 14 14 13 12 13 13 13 12 11 10 10 12 12 9 7 9 9 10 11 10 12 14 16 17 19 19 18 16 14 13 12 12 10 10 8 6 3 1 3 4 3 4 5 5 7 10 12 14 14 14 13 12 12 13 13
18 19 20 20 18 18 18 18 15 14 15 14 13 14 14 14 15 16 16 16 17 17 17 17 17 15 14 14 14 14 13 13 12 12 14 15 15 15 13 11 9 10 9 6 9 10 10 11 12 12 13 17 19 19 19 19 18 16 14 12 10 8 6 5 4 2 1 1 3 3 3 4 6 8 12 14 13 12 11 10 10 10 12 13 14
18 20 23 24 21 20 21 21 19 17 17 17 16 16 15 13 14 15 15 16 17 16 16 16 16 16 15 16 16 17 16 16 17 18 18 18 17 16 14 11 9 9 8 10 11 11 12 12 13 13 15 17 20 20 18 17 15 14 11 9 7 5 3 2 2 2 3 3 3 4 5 7 10 12 13 11 9 8 7 8 9 11 12 12 14
17 20 24 25 23 22 22 24 24 22 20 20 18 16 14 12 12 12 12 13 15 16 16 16 16 16 17 18 19 21 21 20 20 20 21 20 19 17 15 13 12 11 10 12 13 13 13 14 15 16 17 19 21 20 17 15 13 12 10 7 5 4 3 3 4 4 4 4 4 5 8 10 11 11 10 8 8 9 9 10 10 11 11 12 13
18 19 21 23 23 23 22 21 20 18 17 16 14 12 10 10 10 10 11 13 14 15 15 15 16 17 20 21 20 19 18 18 18 20 21 18 17 16 15 14 13 12 12 14 15 15 15 15 16 17 18 21 22 20 17 15 12 10 9 8 6 6 5 4 3 3 3 4 5 7 8 8 7 7 7 8 8 8 8 9 9 10 10 12 14
18 18 20 22 22 22 21 19 18 18 17 16 15 14 13 14 14 14 15 16 17 17 18 17 16 16 17 18 17 15 15 17 17 16 13 9 9 10 11 11 11 13 14 15 16 16 15 16 18 18 19 22 22 19 16 14 13 11 10 9 7 6 5 4 4 4 4 5 5 4 4 4 5 7 8 8 7 7 8 9 11 13 14 16 18
18 20 21 20 19 20 19 18 18 18 18 17 17 17 17 17 17 17 17 18 19 20 20 20 20 19 18 17 16 16 17 17 12 9 8 9 8 7 7 8 10 13 15 17 17 17 17 18 20 21 21 21 20 19 17 15 14 13 11 9 7 6 5 4 3 3 3 2 1 3 5 7 8 9 10 10 10 10 11 13 15 17 18 19 20
18 19 19 18 18 19 19 18 18 19 19 18 17 17 17 17 17 17 18 19 20 21 20 20 20 21 22 21 20 20 20 16 12 13 11 10 10 9 8 9 10 12 13 14 15 17 18 20 21 22 23 22 20 19 17 15 13 12 10 8 7 5 3 1 1 2 3 4 5 7 8 9 10 11 12 13 13 14 15 16 18 19 19 20 20
16 16 17 18 19 20 20 19 20 20 19 18 17 17 17 17 17 18 19 20 22 23 24 22 20 20 22 22 21 22 19 16 16 14 11 11 10 9 9 9 9 9 10 11 13 16 18 20 21 21 22 22 21 19 17 14 11 9 8 7 7 5 5 5 5 6 7 7 8 9 9 10 11 12 12 13 14 16 17 18 18 19 19 20 20
16 17 16 18 20 21 21 19 17 16 16 17 17 18 17 16 16 16 17 19 21 22 22 22 20 19 20 20 18 15 13 15 16 15 14 13 12 10 8 7 6 6 8 11 14 16 19 21 22 21 20 19 18 17 15 12 10 9 9 9 10 11 11 10 8 7 7 8 8 8 9 9 10 11 13 14 15 16 17 17 18 19 19 20 21
Wind_Direction
171 171 175 178 184 186 167 156 156 154 156 158 158 159 156 156 154 150 150 146 141 141 139 139 142 140 134 131 132 129 128 125 122 125 124 119 113 108 103 100 97 91 95 95 102 119 110 118 216 245 243 242 235 227 219 210 212 218 220 221 229 230 219 217 215 207 197 187 197 247 232 261 265 259 260 250 254 324 349 314 322 338 338 35 191
165 169 175 179 184 182 162 157 158 155 157 160 162 163 162 161 159 156 155 149 142 143 146 145 147 149 145 141 138 134 135 131 121 122 125 122 118 114 107 107 104 108 120 108 104 134 134 126 150 186 208 230 226 216 212 211 215 217 218 225 229 229 218 210 208 201 190 182 170 139 180 247 268 265 260 255 258 276 297 309 323 330 314 297 256
163 169 170 171 178 177 162 158 160 159 159 161 164 165 165 165 164 162 158 152 148 153 159 154 153 154 147 146 143 134 132 128 115 111 114 114 115 113 111 110 104 119 140 123 108 127 145 135 130 131 122 180 220 198 189 202 215 210 210 226 226 219 214 210 209 202 183 165 143 115 116 239 287 284 262 254 256 261 270 283 301 315 310 295 283
165 170 169 168 174 173 163 159 160 161 161 161 164 166 167 170 170 166 159 156 155 156 157 153 150 147 140 140 139 131 126 122 115 113 111 110 112 110 111 108 102 113 125 121 113 118 133 142 134 127 111 86 137 176 186 190 202 204 201 209 206 197 204 209 215 204 180 165 130 87 59 63 342 287 263 239 231 240 251 263 276 289 301 302 294
164 167 168 167 170 170 165 161 159 163 164 163 166 168 170 174 175 169 164 165 163 157 154 148 141 137 132 131 130 128 126 123 121 120 113 110 111 111 113 112 107 112 117 119 115 107 114 130 130 119 104 89 96 126 144 128 123 165 188 196 197 193 191 191 203 205 191 184 155 113 90 26 217 212 215 225 217 208 227 250 260 266 286 312 299
160 166 168 163 164 165 164 164 160 163 167 167 169 171 173 177 178 173 170 172 170 165 162 155 148 143 139 134 132 131 131 131 131 127 121 117 114 111 112 110 105 110 118 118 106 98 104 117 134 127 103 98 103 113 118 101 96 103 108 138 185 188 178 168 165 174 189 193 186 161 134 122 186 164 124 199 241 222 224 243 252 250 257 259 253
160 166 167 160 161 162 165 169 168 166 167 168 171 173 175 178 178 176 175 176 174 173 173 168 159 154 151 144 140 139 136 136 136 130 125 119 114 109 104 101 98 101 109 113 102 95 94 98 126 133 111 107 109 108 111 104 98 97 88 85 104 148 159 154 146 139 153 180 194 187 158 149 180 172 169 166 214 247 242 245 255 253 242 234 229
160 163 167 164 164 167 170 174 176 174 170 170 173 173 177 180 179 177 178 180 178 177 179 176 169 161 154 148 145 144 138 135 135 131 125 119 115 114 108 103 101 99 99 103 100 95 90 87 100 113 106 105 109 107 107 105 101 100 94 87 84 96 110 113 122 127 123 129 163 177 168 175 199 192 171 153 128 184 266 268 272 264 244 237 228
155 159 165 167 173 176 176 178 181 181 179 180 180 175 175 177 177 176 181 186 184 182 182 179 173 162 154 152 151 147 141 137 136 131 127 124 121 119 116 110 108 104 102 103 99 94 95 90 90 95 92 90 98 106 110 109 106 102 98 92 87 87 88 93 103 105 102 103 115 153 178 187 187 149 143 159 141 152 270 286 309 301 274 260 237
167 169 166 170 178 182 180 179 180 181 183 188 188 184 177 172 170 174 185 190 190 186 183 179 169 160 160 161 154 148 144 141 139 134 132 132 126 120 121 120 118 116 112 111 107 100 103 99 91 90 89 84 84 92 101 102 102 100 97 97 96 94 92 97 102 96 91 90 89 100 129 153 146 93 68 55 99 172 244 281 343 343 318 314 272
152 161 165 170 176 178 180 180 175 175 181 186 188 188 186 176 166 170 189 195 194 190 184 177 168 164 169 167 158 152 150 147 144 142 140 137 131 127 128 129 126 125 121 117 115 108 106 107 103 98 98 94 85 86 91 92 95 99 99 101 103 103 102 101 101 98 93 86 83 88 96 104 100 80 64 56 58 64 307 289 349 356 355 9 6
99 106 119 151 160 169 178 180 173 171 176 182 186 186 187 183 172 174 192 199 195 191 186 179 172 171 175 170 162 158 155 153 150 149 147 143 139 137 134 131 128 128 123 117 115 111 106 109 113 110 106 102 96 93 92 93 98 100 101 102 102 108 114 111 104 99 95 86 80 84 86 86 84 80 70 58 52 47 43 26 1 5 2 358 4
79 81 76 88 107 158 183 182 172 171 179 183 186 184 181 183 182 182 193 199 196 192 188 184 177 176 176 171 166 162 160 159 155 152 151 146 145 145 143 137 133 134 130 121 118 114 109 108 114 117 114 108 105 99 91 92 93 95 102 101 97 103 115 122 115 105 99 91 83 79 78 77 75 72 66 62 60 52 48 35 4 5 358 342 354
67 66 64 67 65 111 183 188 177 172 180 185 184 180 177 182 190 194 200 202 197 191 189 187 182 179 178 172 167 165 165 162 157 156 154 150 150 151 150 145 139 141 139 131 125 120 118 116 115 119 122 119 114 104 99 100 93 92 98 96 91 93 102 115 120 116 109 100 95 91 85 83 76 65 56 54 56 52 49 37 12 2 355 351 353
71 59 50 44 40 45 96 187 190 179 175 180 181 179 178 182 193 199 204 212 203 192 190 189 184 182 181 174 169 168 168 163 159 160 158 155 155 156 157 154 145 145 147 138 132 132 133 132 127 123 124 129 124 112 108 108 100 96 97 92 87 82 85 95 102 112 111 100 98 98 91 95 89 71 57 43 52 62 56 46 33 28 8 353 347
83 78 61 36 41 43 47 100 174 177 169 172 176 178 179 182 191 194 195 214 213 196 189 188 185 186 185 176 171 168 167 164 161 165 165 160 158 159 165 164 154 152 153 146 143 146 147 140 137 133 128 131 130 124 119 114 106 106 103 94 90 84 79 84 90 105 111 100 95 90 82 93 88 62 58 55 65 81 72 56 43 45 49 359 332
79 95 104 56 48 49 48 63 107 155 168 178 186 192 192 184 187 191 193 208 210 186 180 183 185 190 188 176 172 168 166 165 165 168 170 167 162 161 167 168 164 165 162 155 155 159 161 152 146 147 143 137 135 136 141 136 123 116 116 112 113 115 102 90 90 102 114 111 100 87 73 85 85 70 66 58 57 67 66 53 35 31 43 54 25
69 71 73 53 46 48 50 55 71 123 158 174 188 199 200 193 196 198 197 199 175 168 176 179 176 183 194 188 179 171 167 166 169 171 171 171 168 162 164 170 172 175 172 164 163 169 174 172 165 162 161 158 152 154 162 157 151 145 142 148 152 146 134 125 115 101 114 124 119 105 81 84 93 87 81 66 53 57 56 49 47 33 27 43 62
64 62 60 56 55 52 54 57 57 69 99 140 167 181 185 188 196 196 192 183 169 170 174 172 168 176 195 205 193 180 176 173 173 176 174 174 174 169 167 171 175 179 179 174 172 178 183 183 185 187 186 185 171 169 178 173 170 173 170 173 169 153 153 154 148 115 111 121 127 121 91 92 107 107 108 98 61 46 40 35 58 65 37 25 22
76 78 72 68 71 67 64 62 61 61 60 69 92 113 148 170 174 176 175 168 167 171 171 169 168 176 191 201 196 186 183 182 183 184 181 177 173 172 172 174 176 181 183 185 188 191 197 196 197 204 206 207 193 184 194 192 184 190 193 194 183 168 178 183 166 156 122 112 123 120 55 85 112 111 121 121 87 64 31 7 10 30 31 355 334
96 95 91 83 84 81 76 70 68 68 65 62 61 56 48 79 139 153 155 156 163 170 173 173 172 178 186 189 188 185 182 180 178 181 184 181 172 169 174 181 186 188 187 191 198 206 216 216 211 217 220 220 215 202 205 209 203 208 213 215 206 189 195 203 183 176 175 163 165 183 291 316 62 72 121 129 85 87 68 39 43 34 25 20 351
125 114 105 104 101 92 85 78 74 72 69 65 64 64 62 68 104 136 145 151 157 157 165 173 172 171 172 172 174 174 167 162 154 155 171 176 172 166 166 173 180 181 185 196 205 211 220 226 225 227 227 228 229 217 215 217 214 216 221 225 224 209 206 212 203 195 201 204 195 182 189 224 294 0 105 106 69 79 75 56 64 58 38 32 18
124 122 121 110 99 95 91 87 83 78 75 73 69 70 71 73 89 111 122 136 150 152 157 165 162 157 154 154 157 156 151 148 141 141 151 161 169 172 171 172 170 164 165 187 208 215 218 224 229 232 231 231 233 227 222 223 221 222 224 227 228 222 217 218 218 214 215 218 214 199 194 221 258 288 78 79 59 58 53 28 38 44 27 13 11
105 110 115 109 100 96 93 89 87 85 82 80 76 76 78 78 84 96 104 116 135 149 159 162 161 158 150 143 145 152 155 155 157 164 165 166 173 183 191 196 197 196 193 189 196 201 205 213 227 234 231 228 230 229 226 225 226 227 227 228 228 225 223 225 226 224 223 228 229 218 210 229 246 234 167 157 272 253 256 262 295 305 315 323 327
120 126 128 123 117 110 103 97 94 92 91 88 84 82 83 85 87 92 103 116 128 144 155 158 159 160 156 155 166 173 175 182 193 201 204 199 193 197 204 207 214 224 232 241 225 203 201 209 221 231 233 231 230 227 225 225 226 226 225 226 227 227 226 228 229 228 230 232 228 221 217 226 235 224 207 227 236 242 261 269 279 290 290 299 307
130 129 135 139 136 132 127 119 110 106 101 94 91 91 89 90 93 97 104 113 123 136 144 146 153 159 164 177 196 200 196 201 206 201 201 206 206 207 210 216 230 234 232 237 238 229 224 223 225 229 233 232 226 221 220 220 222 223 223 222 224 226 226 227 230 231 230 225 216 215 222 225 232 235 229 235 244 250 264 268 265 276 283 287 295
119 101 91 84 91 113 133 138 134 125 116 107 99 98 97 94 96 101 107 112 117 126 132 134 140 152 162 180 201 202 195 200 206 204 211 223 224 217 217 227 237 236 232 235 239 239 237 239 240 240 241 235 224 223 225 223 220 220 222 222 221 221 222 222 224 225 221 216 215 220 226 229 237 242 239 244 253 256 265 278 280 280 282 285 292
109 97 92 83 68 64 89 116 129 128 124 121 116 110 106 103 104 108 109 111 117 123 125 126 131 144 157 163 166 165 168 178 186 196 217 230 229 225 228 233 232 233 238 244 248 249 249 252 252 250 246 238 232 234 236 234 228 222 223 226 223 218 217 215 214 216 215 215 222 227 227 231 237 241 246 252 255 262 281 293 292 289 290 293 298
133 117 104 93 80 62 64 81 101 110 114 118 121 124 123 116 111 113 113 114 122 128 129 132 137 146 158 163 161 160 167 174 178 184 194 207 214 218 224 229 232 238 245 250 253 255 257 258 256 253 249 243 242 246 248 246 242 233 228 230 227 220 214 209 206 207 210 213 218 222 223 231 240 244 250 253 252 268 289 296 293 291 294 297 304
159 145 133 119 105 86 71 70 80 94 108 119 125 127 130 132 131 127 126 131 138 142 144 148 148 145 150 158 160 164 170 174 181 188 192 199 207 216 221 225 231 237 244 250 254 256 257 256 254 252 250 245 244 247 252 255 254 247 239 237 234 223 214 206 202 201 203 208 213 218 223 233 241 245 247 249 256 273 287 289 288 290 295 301 314
267 162 134 133 126 109 89 80 72 68 86 111 129 137 138 142 148 150 151 150 151 154 152 152 152 147 147 154 160 165 168 169 178 189 195 207 218 228 236 238 239 239 243 250 254 254 254 254 255 254 251 248 248 252 257 260 261 254 245 241 237 223 211 205 202 200 200 204 210 217 222 231 240 243 247 252 263 275 282 283 281 282 288 300 316
223 173 146 150 146 135 112 92 80 71 67 57 65 128 145 143 142 147 145 143 151 164 157 146 151 152 152 161 157 155 167 185 208 200 200 216 228 239 248 252 250 247 248 251 254 253 251 250 253 255 256 258 261 264 265 264 263 257 244 239 235 222 211 206 204 203 203 205 211 216 219 227 235 239 246 255 266 276 282 281 273 264 266 283 304
202 152 143 143 134 124 110 93 78 72 66 54 52 76 115 118 105 106 118 145 171 183 179 166 170 177 174 170 158 151 166 173 128 121 113 116 261 307 311 300 284 270 259 253 254 256 251 248 252 259 266 274 273 270 270 267 263 254 244 241 234 220 210 206 203 201 203 206 211 216 219 223 228 234 244 254 265 276 282 279 267 254 251 265 289
46 76 81 78 88 104 104 96 87 79 68 57 51 55 79 85 77 120 203 233 204 198 203 193 188 196 175 162 168 167 158 129 119 106 77 19 318 320 322 320 319 314 300 280 272 269 258 250 256 268 275 279 276 272 272 270 264 258 248 239 226 212 205 202 198 195 198 202 210 215 217 217 220 231 243 249 257 268 273 267 257 249 252 269 287
33 45 68 81 85 94 96 88 81 80 68 36 16 3 35 54 277 228 215 232 249 251 233 205 201 218 213 199 208 209 209 189 142 116 36 3 321 309 307 306 307 309 309 302 289 281 272 263 264 268 271 270 269 269 268 268 270 264 239 219 207 197 189 183 181 186 193 196 199 200 200 202 211 228 238 242 250 257 255 249 246 250 261 275 286
39 24 34 63 73 79 92 91 82 86 79 30 16 8 2 355 336 286 229 240 254 262 257 224 206 215 218 229 235 228 222 217 210 225 238 258 285 295 300 301 298 293 295 298 289 278 278 277 265 257 255 256 263 267 266 264 260 241 211 197 189 184 178 172 175 189 196 196 197 199 206 225 242 249 253 255 258 258 251 246 249 258 268 275 282
113 98 46 53 82 92 101 109 116 116 78 15 13 2 346 340 333 318 308 296 274 260 257 250 239 233 232 238 239 230 220 219 228 238 239 246 264 280 288 291 293 291 288 291 291 279 271 270 260 249 244 243 249 254 252 241 221 204 194 186 181 179 178 176 179 185 191 200 213 229 247 261 264 260 257 257 256 252 248 250 257 266 272 276 280
105 116 37 1 9 91 125 132 134 102 30 8 359 342 332 331 325 312 307 305 300 291 279 267 256 245 237 232 230 233 234 232 234 234 237 248 262 272 280 283 288 292 289 289 293 283 263 254 253 248 241 238 238 234 225 212 200 194 189 180 176 176 173 172 177 182 198 222 236 250 260 260 256 252 248 244 242 242 245 253 263 270 276 278 279
8 24 26 14 4 1 32 105 121 41 342 332 310 297 296 299 301 298 296 295 294 293 290 286 284 280 266 250 247 257 256 243 236 241 250 260 265 267 268 272 282 290 291 292 294 284 258 241 242 241 232 226 221 211 204 200 196 195 191 182 176 175 170 169 177 185 194 212 225 236 248 249 245 243 243 241 242 247 255 265 275 283 288 290 290
347 349 352 352 348 345 347 344 318 296 299 297 283 271 262 260 267 273 276 278 279 282 286 289 288 284 276 267 263 264 264 258 256 258 260 258 257 256 258 265 275 283 290 295 294 277 247 225 223 224 215 206 203 195 190 193 194 193 192 187 178 172 168 162 160 160 158 159 194 251 277 270 254 247 248 251 258 270 280 287 293 298 300 301 302
332 330 330 329 325 320 319 316 309 305 302 294 282 271 261 258 261 261 263 267 269 271 274 275 274 270 265 262 259 258 258 260 259 257 252 248 246 247 251 260 269 280 290 293 280 244 216 199 194 199 195 190 194 190 184 186 189 187 187 187 178 169 166 162 156 155 151 128 9 336 325 305 282 267 267 281 297 303 304 306 307 308 310 313 315
323 324 323 319 313 307 301 293 291 292 289 283 274 269 267 265 261 257 260 265 266 265 264 265 266 266 264 263 262 262 262 264 266 260 249 241 239 241 247 257 271 283 287 275 225 197 187 176 172 176 178 177 181 185 182 182 187 186 182 180 175 168 168 168 166 170 176 193 335 331 314 286 278 280 294 308 314 314 315 317 319 321 325 326 321
321 319 317 315 312 308 302 295 289 286 286 288 283 276 273 266 258 258 263 265 265 267 267 267 269 272 273 271 270 268 268 267 270 270 262 252 245 245 249 252 264 275 267 213 182 177 170 162 157 160 169 173 174 177 178 178 181 181 175 174 176 177 183 188 185 184 189 237 293 304 287 277 287 301 311 316 318 319 324 328 330 329 328 324 318
327 322 319 314 307 300 297 294 291 288 291 297 297 289 280 274 274 278 273 262 259 262 264 267 271 273 276 277 276 275 275 275 274 272 267 258 246 242 241 236 238 248 228 184 172 170 162 154 151 154 164 170 170 171 173 172 172 173 173 177 187 196 208 203 163 149 165 192 251 285 292 297 305 311 315 315 314 317 323 324 323 324 325 324 322
325 324 322 319 313 307 302 296 289 285 283 286 288 285 277 278 290 298 293 281 274 269 264 264 268 269 272 276 276 273 269 267 267 266 262 255 247 240 228 214 211 216 201 178 170 169 163 157 156 158 163 170 172 170 168 167 169 173 176 180 184 178 159 136 134 152 181 208 247 277 290 298 306 312 312 307 304 307 312 315 319 326 331 334 335
320 318 319 320 319 318 316 312 307 304 301 301 304 302 298 305 313 315 313 310 301 288 277 270 268 269 270 269 266 265 263 263 268 271 266 255 243 229 210 195 190 190 185 178 172 169 166 162 161 163 167 171 171 168 165 167 168 167 164 161 155 149 146 147 164 197 222 248 269 283 293 301 312 325 331 327 325 325 326 327 332 338 341 341 340
310 312 315 316 314 311 309 309 310 312 312 314 315 313 312 315 316 313 310 308 305 302 296 285 274 271 270 268 266 267 270 270 269 266 257 232 206 198 191 185 183 181 179 177 172 171 171 167 164 166 170 172 170 167 166 165 160 155 154 156 158 165 180 200 226 254 277 289 294 305 330 354 4 6 6 6 6 2 353 345 342 340 337 335 333
305 308 310 310 312 312 310 309 309 311 310 306 302 300 300 301 302 303 302 299 298 297 296 291 283 271 264 268 273 275 276 271 249 209 179 165 166 178 191 195 196 194 188 182 179 183 187 181 172 167 165 163 166 169 168 162 160 163 167 171 177 183 191 209 249 295 306 307 28 58 50 36 23 13 8 6 1 354 347 341 337 333 330 326 323
302 305 305 307 310 310 310 312 315 315 312 306 300 297 296 294 292 293 293 293 293 291 289 291 288 274 263 262 266 269 268 253 208 173 160 157 160 172 186 193 199 204 205 202 200 200 196 185 175 168 163 160 162 166 165 161 164 171 177 183 185 179 168 154 111 93 98 96 78 63 50 35 20 10 6 3 357 350 345 338 332 328 325 322 320
310 312 314 315 313 307 303 304 308 310 309 305 300 295 292 289 287 286 285 284 284 284 282 281 280 274 265 259 260 263 256 223 188 175 170 159 154 166 181 188 195 204 212 218 219 210 197 183 172 169 170 169 165 161 160 162 167 172 175 175 164 136 106 99 101 97 90 81 68 59 48 31 18 12 8 2 354 347 342 337 332 329 326 324 322
319 314 309 305 302 299 298 300 305 311 312 310 307 304 299 296 291 286 285 283 279 276 276 276 275 271 263 256 255 254 229 195 183 182 177 163 149 147 158 175 197 211 214 214 211 201 190 182 175 167 163 162 158 155 155 159 163 162 156 146 129 111 101 101 102 97 86 76 68 57 43 28 18 12 3 353 347 343 340 337 334 331 328 327 324